Погода в Джизаке

Погода в Джизаке : погода сейчас, прогноз погоды и архив. Всё, что Вы хотите узнать о погоде в Джизаке!

Хотите узнать прогноз погоды в Джизаке? Тогда Вам сюда: Погода в Джизаке

Поиск расширенной информации на нашем сайте:

Другие новости

Новости СМИ2

Главная страница сайта

Новости сайта

03.07.2017

Напоминаем, что на нашем специализированном сайте Метеоцентр.Азия вы можете получить высокодетализированные автоматические прогнозы погоды по пунктам России, СНГ и мира в авиационном формате (включающие направление и скорость ветра, видимость, явления погоды, количество и форму облачности, нижнюю и верхнюю границу облачности).


Погода в Джизаке - сегодня

Время (UTC), дата Ветер
(°,м/с) 
Видим.   Явления Облачность Т
(°С)
Тd
(°С)
f(%) Тe
(°С)
Pmin
(гПа)
dP
(гПа)
Po
(мм)
O2
(г/м3)
Тmin Tmax R s Состояние
почвы
00 19.09.17 140 (ЮВ) н/о    ясно 
+13.2 +8.1 71 +14  1015.4  731  280           
03 19.09.17 тихо ()   20000 м    ясно 
+15.9 +9.8 67 +17  1016  0.9  732  277           
06 19.09.17 350 (С) 20000 м    ясно 
+26.5 +12.6 42 +32  1014.8  0.3  732  266  +12.7         
09 19.09.17 040 (СВ) 20000 м    ясно 
+30.7 +14.5 37 +39  1013  -1.1  731  262           
12 19.09.17 050 (СВ) 20000 м    ясно 
+30.3 +13.4 36 +37  1012.2  -0.9  731  262           
15 19.09.17 тихо ()   н/о    ясно 
+21.4 +11.8 54 +26  1013.7  0.3  731  271    +31.3       
18 19.09.17 тихо ()   н/о    ясно 
+16.6 +10.4 67 +19  1014.3  -0.1  731  276    +31.3       
21 19.09.17 тихо ()   н/о    ясно 
+14.9 +8.8 67 +15  1013.1  -1.4  730  277           
00 20.09.17 тихо ()   н/о    ясно 
+14 +6.2 59 +14  1013  -0.2  729  279    +1       
03 20.09.17 тихо ()   20000 м    ясно 
+17.4 +8.9 57 +18  1012.5  729  275  +13        сухая 
06 20.09.17 360 (С) 20000 м    ясно 
+26.2 +13 44 +32  1011.3  0.1  730  266  +13         
09 20.09.17 350 (С) 20000 м    ясно 
+27.6 +13.9 43 +35  1010.3  -0.9  729  264           
12 20.09.17 360 (С) 20000 м    ясно 
+29 +13.4 38 +36  1009.4  -0.7  728  263           
15 20.09.17 150 (ЮВ) н/о    ясно 
+22.8 +11.7 50 +27  1010.5  0.2  728  269    +29.5       
18 20.09.17 280 (З) н/о    ясно 
+17.6 +9.7 60 +19  1010.3  -0.8  728  274    +29.5       
21 20.09.17 тихо ()   н/о    ясно 
+16 +8.1 59 +16  1009.9  -0.6  727  275           
00 21.09.17 350 (С) н/о    ясно 
+15.3 +7.7 60 +16  1009.9  727  276           
03 21.09.17 020 (С) 20000 м    ясно 
+18.4 +9 54 +20  1010.3  0.8  728  273  +14        сухая 
06 21.09.17 200 (Ю) 20000 м    ясно 
+25.3 +13.3 47 +32  1009.6  0.2  728  266  +14         
09 21.09.17 040 (СВ) 20000 м    ясно 
+28.2 +14 42 +36  1008.3  -0.9  728  263           
12 21.09.17 030 (СВ) 20000 м    ясно 
+27.8 +13.3 41 +34  1008.5  0.2  728  263           
15 21.09.17 320 (СЗ) н/о    ясно 
+19.4 +10.3 56 +23  1010.2  0.5  728  272    +29.5       
18 21.09.17 200 (Ю) н/о    ясно 
+15.6 +8.2 61 +16  1010.2  -0.5  728  276    +29.5       
21 21.09.17 180 (Ю) н/о    ясно 
+14.5 +7.1 61 +16  1010  -0.4  727  277           
00 22.09.17 220 (ЮЗ) н/о    ясно 
+13.1 +6.8 66 +14  1010.3  727  278           
Время (UTC), дата Ветер
(°,м/с) 
Видим.   Явления Облачность Т
(°С)
Тd
(°С)
f(%) Тe
(°С)
Pmin
(гПа)
dP
(гПа)
Po
(мм)
O2
(г/м3)
Тmin Tmax R s Состояние
почвы

Для получения пояснительной информации подведите курсор к названию столбца.

ПОГОДА в Джизаке - архив

Всё, что Вы хотите узнать о погоде в Джизаке - удобно и подробно!

Выберите нужную дату (начиная с 1 января 2015* года) и нажмите кнопку "Найти".
Будут отображены архивные сводки погоды по пункту Джизак, начиная с указанной даты.


Отображать данные в формате CSV (для использования в таблицах Excel)


Внимание! Наш архив погоды предназначен исключительно для личного некоммерческого использования в познавательных целях. Если Вам необходимы официальные справки о состоянии погоды (для производственных, юридических, коммерческих и т.п. целей), обращайтесь в органы Росгидромета.

*Примечание: данная дата относится к архиву по метеостанциям СССР (Россия, СНГ, Балтия).
Архив по метеостанциям Зарубежной Европы и Азии (кроме Китая) хранится 10 дней, по другим регионам земного шара (Китай, Африка, Америка, Австралия, Океания) - 1 день.

Джизак - район местоположения метеостанции


Название, широта, долгота, высота метеостанции:
Джизак 40.1°ш. 67.8°д. 345 м над ур. моря [Узбекистан]

Дополнительная информация

В oтличие oт бoльшинства пoгoдных сайтoв мы публикуем пoдрoбную метеoинфoрмацию в детальнoм прoфессиoнальнoм фoрмате.

Характеристики температуры и влажнoсти вoздуха измеряются на высoте 2 м в тени вдали oт зданий и деревьев.
Скoрoсть ветра измеряется на высoте 10 м (на урoвне рoста челoвека скoрoсть ветра ниже в 1.5-2 раза). Если метеoстанция нахoдится в гoрoде или в лесу, тo скoрoсть ветра занижена на 2-4 м/с пo сравнению с oткрытым местoм. Скoрoсть ветра над акватoриями крупных рек и oзёр, а также на вершинах хoлмoв на 2-5 м/с выше, чем в oбычных услoвиях.
Атмoсфернoе давление в разных тoчках местнoсти мoжет значительнo oтличаться oт давления на метеoстанции, в зависимoсти oт услoвий рельефа (при пoдъёме на 10 м давление пoнижается примернo на 1 мм рт.ст.).